Wind_Speed
42 47 45 55 42 56 45 50 57 55 60 67 68 73 78 81 78 75 72 74 71 66 67 70 72 72 69 67 67 61 59 61 57 66 65 63 62 64 63 63 61 57 54
56 61 63 53 75 66 63 71 68 68 72 73 74 82 82 79 77 79 77 77 80 79 76 70 67 66 72 71 70 74 69 63 63 64 72 67 67 68 71 64 62 62 60
61 54 65 72 70 72 78 86 83 82 88 82 84 83 82 83 82 79 78 81 80 81 83 77 74 79 78 83 78 77 73 72 69 70 71 76 80 84 81 76 71 68 61
68 72 74 72 74 91 79 77 86 85 88 83 83 84 84 84 85 90 89 91 93 92 90 90 87 88 89 86 85 84 82 79 76 75 76 80 91 93 94 89 83 79 74
76 80 79 86 82 83 87 92 95 92 89 93 89 88 91 95 98 101 99 98 100 102 101 103 101 99 95 96 99 98 90 90 88 87 89 94 96 94 87 86 86 85 81
86 84 85 88 96 94 95 96 99 102 102 101 104 103 99 106 104 101 103 107 108 107 109 104 107 103 102 102 102 109 106 103 99 101 110 108 109 105 88 83 78 78 78
86 90 94 92 94 104 104 105 102 106 112 114 117 116 118 115 113 115 112 113 109 109 110 117 110 117 115 112 115 118 117 115 113 120 124 120 114 105 91 88 85 79 77
88 93 98 102 108 110 113 117 118 114 115 122 126 125 127 130 130 133 132 130 132 133 134 134 133 132 133 135 134 130 131 129 131 127 124 111 104 101 93 91 89 82 81
90 90 93 99 107 110 114 119 125 128 129 131 133 136 138 140 143 144 146 146 145 149 150 148 143 143 146 145 142 141 145 135 132 137 129 126 106 97 95 91 89 86 85
89 88 93 96 97 100 108 116 127 132 135 134 135 139 144 147 152 152 152 149 154 158 157 160 153 145 139 137 135 130 130 133 128 122 116 113 104 95 91 88 87 90 94
80 90 96 97 98 100 102 103 108 114 122 131 135 139 144 150 157 153 149 145 142 142 141 136 131 125 121 116 115 110 106 104 101 101 98 99 95 91 89 88 87 86 92
59 64 69 74 78 82 87 89 91 93 98 103 106 110 114 123 119 113 109 106 102 100 102 100 100 100 98 93 87 82 81 80 77 76 78 82 85 88 88 87 88 88 87
47 48 51 55 59 63 67 69 72 72 73 75 78 81 84 90 85 75 70 69 70 73 75 76 78 78 79 78 71 66 66 66 67 68 70 72 75 78 79 80 82 83 83
46 49 54 58 55 53 53 54 55 56 57 58 57 56 50 52 55 50 47 46 46 47 49 56 60 63 67 67 63 60 58 58 58 57 59 62 64 65 65 65 65 65 68
47 48 43 40 36 33 32 32 32 31 33 34 35 36 37 35 32 30 26 25 27 29 34 41 47 51 55 59 62 63 64 63 62 57 54 51 50 51 51 50 50 51 54
32 27 22 18 19 19 19 20 23 25 24 27 29 30 26 26 27 24 23 22 21 20 25 33 40 43 47 49 50 52 52 52 49 48 46 46 46 44 44 44 45 44 50
14 17 18 18 18 18 17 19 18 18 23 25 26 28 31 35 36 37 35 31 26 27 27 27 29 31 34 34 36 40 43 44 46 46 47 49 50 49 48 50 53 53 53
13 15 16 17 17 19 19 19 21 24 24 23 24 27 30 30 29 28 29 33 36 36 36 36 35 37 40 44 45 47 49 49 49 49 50 50 50 54 58 58 59 59 58
17 18 18 18 19 20 22 22 24 28 30 33 34 34 33 34 31 31 31 31 31 33 33 35 37 40 42 42 44 47 47 48 49 57 59 56 54 55 58 59 61 63 61
18 18 16 19 21 22 23 26 30 34 36 39 40 40 41 43 42 40 38 38 39 41 41 41 44 44 45 46 46 47 48 49 51 52 51 53 59 61 61 62 62 61 62
16 16 19 23 25 28 32 35 38 40 43 45 45 46 45 43 44 45 45 48 50 50 49 50 52 52 51 52 53 53 54 53 53 53 55 55 53 53 55 56 59 62 58
18 21 24 28 31 34 38 41 43 45 48 48 48 48 51 51 51 51 53 56 57 54 55 59 62 62 63 62 61 62 62 62 62 60 58 59 58 56 54 53 49 54 51
22 25 28 32 37 40 43 44 46 49 49 48 48 50 54 56 55 56 60 64 68 68 71 65 59 64 65 64 66 68 70 68 68 68 68 66 62 58 58 56 52 45 48
26 30 36 40 42 45 47 51 52 53 55 53 54 55 58 60 63 64 68 72 74 76 76 75 76 69 64 61 60 67 69 71 71 72 74 72 70 64 61 59 55 48 44
31 35 39 42 45 49 51 54 54 56 58 55 56 59 63 65 67 69 74 78 80 79 74 67 66 64 59 55 54 58 61 66 67 62 63 66 63 64 60 59 58 52 45
34 38 41 45 50 52 55 57 57 56 58 59 60 65 69 69 71 72 77 80 80 75 66 61 58 56 54 52 51 51 51 54 58 55 53 53 53 55 59 60 58 55 48
Wind_Direction
281 274 274 277 250 260 255 252 246 250 259 259 260 260 263 266 270 270 271 273 270 271 274 278 277 273 273 275 272 278 282 278 278 286 288 287 285 283 283 280 276 271 270
245 262 259 252 255 260 243 251 254 249 256 252 257 258 260 261 264 271 275 273 274 273 275 274 267 268 270 273 275 280 274 277 272 277 285 290 287 285 285 282 277 272 269
229 235 247 249 250 245 253 261 253 252 254 256 258 259 260 263 267 269 267 268 271 275 276 270 269 270 268 273 275 281 265 276 267 269 272 281 291 292 288 278 275 272 270
231 236 231 235 248 247 257 256 252 253 255 256 257 259 261 261 262 266 266 270 272 274 274 276 276 278 279 277 280 281 270 273 274 272 272 277 285 290 287 280 275 271 267
239 237 237 240 248 248 250 258 260 255 258 257 253 256 259 260 263 266 269 273 272 275 275 276 277 277 275 277 280 279 274 273 274 274 279 279 285 287 282 279 275 271 268
235 241 245 247 243 245 244 248 253 254 255 256 257 257 260 264 268 265 268 270 271 273 274 273 276 273 272 272 273 279 273 275 278 279 285 285 286 285 280 279 274 272 269
241 246 248 247 247 247 252 252 252 255 255 256 258 260 263 263 263 264 265 266 263 267 267 272 269 270 270 271 273 271 275 274 276 279 283 282 286 282 279 272 275 271 264
250 248 246 250 253 251 251 252 252 253 255 255 257 260 262 263 264 264 268 268 268 268 270 273 274 272 274 275 274 274 275 274 279 281 281 282 281 278 275 273 269 266 261
258 256 255 253 251 253 254 252 254 256 259 261 262 262 262 265 266 265 267 269 270 270 271 274 273 274 274 273 271 274 276 280 276 279 279 280 277 274 274 271 266 259 258
262 262 261 260 260 258 257 257 258 259 259 261 264 266 267 267 266 267 270 272 273 272 270 270 272 274 273 274 273 273 274 274 276 276 276 276 275 274 270 268 265 260 256
261 259 260 262 263 264 264 264 264 263 263 264 266 268 269 268 267 271 273 273 273 272 272 272 272 271 272 272 274 275 273 273 272 271 271 271 271 270 267 265 264 261 257
270 269 269 270 269 269 270 271 271 270 270 269 270 271 274 275 277 279 277 275 273 271 269 268 268 268 268 271 274 273 271 270 270 269 268 269 269 268 268 266 265 264 261
278 278 277 276 275 274 273 273 273 274 275 275 276 278 282 286 287 286 280 276 272 269 266 262 262 263 263 267 270 269 270 268 266 265 266 267 268 268 267 266 264 263 262
291 291 290 290 288 285 283 282 283 283 283 284 282 284 289 299 299 296 288 282 275 273 269 263 259 260 261 263 266 270 271 270 271 270 269 267 266 264 264 263 260 257 256
295 298 298 297 296 295 294 294 295 297 297 296 296 297 298 304 318 323 317 303 286 277 268 258 256 261 262 263 266 268 272 274 274 270 268 266 262 259 256 256 254 253 250
294 297 303 313 320 318 314 313 320 320 320 320 320 321 320 321 326 328 333 335 328 305 282 272 268 267 267 268 269 268 267 267 266 266 264 260 254 256 258 254 253 253 253
305 317 320 328 330 328 329 327 328 329 330 334 335 336 334 336 335 334 333 329 318 308 301 292 285 279 275 275 274 271 268 268 265 264 263 255 253 250 251 256 257 258 261
323 323 325 329 331 332 334 335 337 339 339 341 340 337 335 335 334 329 322 319 317 314 310 305 299 291 286 282 278 275 275 274 273 269 263 258 259 256 251 253 255 258 259
317 323 327 329 331 331 332 337 340 340 339 337 335 334 331 327 324 320 316 311 306 303 300 298 296 294 292 290 287 284 281 277 273 268 266 265 261 261 258 256 257 256 258
321 321 327 333 335 336 337 336 337 337 334 332 329 325 324 322 320 315 311 309 306 302 298 295 292 290 287 285 282 281 281 280 278 276 272 268 266 266 262 261 260 257 261
325 326 327 331 336 338 339 339 336 332 329 325 322 319 316 314 313 312 312 311 308 303 298 295 290 285 282 281 278 274 273 272 270 271 273 271 267 265 263 261 262 264 260
328 329 330 334 336 336 335 333 330 326 324 322 320 318 317 318 315 313 312 311 313 305 299 295 285 281 279 277 273 271 270 268 267 267 265 266 266 267 265 264 260 262 261
326 329 334 335 335 333 329 327 325 325 324 325 322 320 317 315 313 312 316 319 317 313 310 305 288 279 280 279 278 274 271 268 265 264 263 262 261 261 261 262 261 255 258
335 337 338 335 330 327 325 327 326 324 324 321 321 322 321 318 316 317 317 316 313 312 309 305 300 297 291 283 276 274 273 270 267 264 261 259 260 259 257 257 256 253 247
339 337 333 333 331 330 329 329 325 323 321 319 321 321 320 319 317 315 314 313 312 310 307 302 298 296 293 290 284 277 274 273 273 269 264 262 259 259 259 255 255 252 244
336 334 335 336 336 335 333 329 326 324 322 321 321 320 319 318 316 315 314 312 313 312 311 307 302 299 298 295 291 286 280 275 274 274 269 267 262 257 255 252 250 250 244
Height
10929 10938 10936 10934 10938 10932 10925 10922 10918 10912 10911 10908 10905 10901 10901 10900 10900 10899 10898 10898 10903 10906 10909 10912 10913 10914 10915 10916 10918 10921 10920 10920 10916 10900 10906 10909 10915 10918 10917 10917 10921 10924 10924
10921 10921 10922 10927 10920 10919 10911 10905 10903 10899 10896 10889 10886 10884 10882 10882 10883 10884 10880 10881 10880 10883 10885 10887 10891 10893 10898 10898 10899 10901 10902 10904 10905 10899 10887 10888 10892 10898 10900 10901 10901 10905 10908
10903 10903 10903 10905 10902 10899 10894 10887 10881 10877 10878 10871 10868 10866 10867 10866 10864 10864 10863 10860 10857 10858 10859 10862 10865 10868 10873 10877 10877 10878 10881 10883 10887 10889 10880 10874 10871 10874 10878 10882 10884 10886 10888
10879 10881 10882 10880 10881 10881 10876 10869 10865 10861 10858 10851 10848 10846 10843 10842 10841 10841 10840 10838 10835 10833 10836 10838 10839 10843 10844 10846 10848 10852 10856 10859 10861 10862 10864 10859 10856 10849 10848 10854 10859 10864 10868
10859 10859 10858 10857 10856 10856 10855 10851 10846 10845 10839 10835 10828 10824 10822 10821 10816 10816 10815 10815 10812 10809 10811 10813 10814 10818 10820 10820 10822 10823 10826 10829 10833 10836 10836 10835 10834 10834 10831 10827 10831 10833 10840
10836 10835 10832 10830 10827 10824 10824 10821 10822 10822 10816 10812 10807 10803 10802 10797 10793 10792 10792 10787 10785 10781 10780 10780 10785 10787 10792 10789 10792 10794 10796 10800 10802 10802 10803 10804 10803 10808 10809 10811 10809 10811 10812
10815 10812 10810 10809 10805 10801 10796 10795 10791 10790 10787 10783 10781 10780 10776 10773 10769 10767 10764 10763 10763 10757 10756 10756 10756 10757 10760 10764 10762 10760 10765 10767 10773 10774 10772 10769 10775 10775 10781 10787 10787 10787 10790
10786 10786 10785 10783 10781 10777 10774 10770 10767 10761 10756 10750 10747 10746 10743 10738 10735 10734 10735 10735 10731 10728 10730 10728 10731 10727 10727 10731 10728 10726 10727 10730 10731 10734 10736 10739 10744 10743 10747 10753 10758 10760 10764
10755 10757 10758 10756 10755 10751 10750 10747 10742 10734 10729 10722 10718 10713 10709 10703 10698 10692 10696 10700 10701 10693 10693 10695 10696 10693 10692 10694 10689 10693 10689 10691 10692 10691 10695 10701 10710 10712 10717 10723 10723 10732 10733
10728 10727 10725 10722 10724 10724 10721 10718 10714 10709 10703 10697 10694 10686 10677 10668 10660 10656 10661 10666 10661 10652 10650 10651 10652 10650 10649 10648 10651 10654 10654 10654 10656 10654 10654 10662 10671 10676 10682 10689 10692 10698 10704
10698 10696 10695 10694 10694 10694 10692 10691 10685 10679 10675 10671 10666 10654 10641 10631 10626 10627 10626 10624 10614 10608 10604 10604 10606 10610 10612 10614 10614 10616 10618 10621 10620 10623 10622 10625 10635 10641 10645 10652 10657 10664 10669
10678 10676 10674 10671 10668 10664 10659 10656 10652 10649 10647 10644 10635 10623 10613 10596 10598 10591 10581 10575 10571 10567 10565 10570 10572 10577 10583 10586 10588 10588 10590 10593 10595 10596 10595 10596 10600 10605 10613 10619 10623 10629 10637
10662 10659 10655 10650 10647 10643 10638 10634 10628 10625 10619 10614 10608 10600 10592 10574 10567 10557 10547 10543 10540 10536 10539 10544 10547 10552 10558 10562 10565 10565 10567 10569 10571 10572 10572 10574 10574 10576 10582 10586 10590 10596 10602
10647 10642 10636 10630 10625 10620 10615 10610 10607 10603 10599 10594 10588 10583 10576 10565 10550 10538 10529 10525 10522 10521 10523 10526 10531 10534 10539 10543 10546 10547 10547 10548 10549 10551 10552 10552 10552 10553 10556 10560 10563 10567 10572
10633 10628 10621 10615 10609 10605 10601 10597 10593 10590 10584 10579 10574 10568 10561 10554 10541 10529 10521 10516 10513 10513 10513 10514 10517 10520 10523 10526 10527 10527 10527 10528 10527 10529 10529 10529 10531 10532 10534 10537 10541 10545 10548
10622 10619 10613 10608 10603 10599 10595 10592 10587 10581 10578 10571 10565 10558 10552 10544 10536 10528 10521 10516 10513 10510 10510 10510 10510 10510 10510 10511 10511 10510 10509 10508 10509 10509 10510 10511 10512 10514 10516 10520 10523 10527 10528
10615 10612 10608 10603 10599 10595 10591 10586 10582 10578 10571 10565 10559 10552 10544 10535 10528 10521 10516 10513 10511 10508 10506 10504 10502 10501 10500 10499 10498 10496 10494 10493 10493 10493 10493 10493 10495 10496 10498 10500 10504 10507 10508
10611 10608 10604 10600 10595 10591 10586 10581 10576 10570 10565 10560 10554 10547 10540 10533 10527 10521 10516 10510 10504 10500 10497 10493 10490 10487 10485 10483 10482 10481 10479 10478 10477 10476 10476 10476 10478 10478 10480 10482 10484 10487 10488
10607 10603 10600 10596 10591 10587 10582 10576 10570 10564 10557 10550 10543 10538 10534 10527 10523 10516 10511 10505 10500 10495 10490 10484 10479 10475 10471 10468 10465 10463 10461 10458 10457 10455 10456 10458 10458 10459 10459 10460 10461 10463 10466
10602 10599 10595 10592 10587 10581 10575 10569 10563 10556 10549 10543 10537 10531 10524 10516 10510 10505 10500 10495 10490 10484 10478 10474 10468 10463 10458 10454 10450 10447 10443 10440 10438 10436 10435 10437 10437 10437 10438 10438 10438 10441 10441
10598 10595 10591 10586 10580 10574 10567 10561 10555 10548 10542 10535 10528 10521 10515 10508 10500 10492 10486 10480 10475 10469 10463 10457 10451 10446 10440 10437 10432 10429 10425 10420 10416 10415 10414 10414 10415 10414 10415 10417 10417 10417 10422
10593 10589 10585 10579 10573 10566 10559 10553 10547 10541 10533 10526 10517 10508 10500 10492 10485 10478 10470 10462 10454 10447 10441 10435 10426 10419 10414 10409 10407 10403 10401 10399 10396 10392 10391 10390 10392 10393 10393 10393 10397 10397 10400
10588 10584 10579 10572 10565 10558 10551 10545 10538 10531 10522 10513 10504 10496 10487 10477 10469 10462 10452 10443 10434 10424 10414 10404 10398 10392 10387 10383 10378 10374 10372 10372 10369 10369 10367 10366 10367 10370 10371 10373 10375 10379 10381
10582 10576 10569 10563 10557 10550 10543 10535 10526 10517 10508 10500 10490 10481 10472 10462 10452 10441 10431 10423 10413 10402 10391 10381 10370 10365 10357 10352 10349 10345 10342 10341 10338 10338 10338 10339 10342 10344 10347 10350 10354 10359 10363
10575 10569 10564 10557 10550 10542 10533 10523 10514 10505 10495 10486 10476 10466 10456 10445 10434 10424 10414 10401 10389 10378 10366 10355 10345 10337 10332 10326 10321 10317 10314 10310 10309 10309 10310 10312 10314 10319 10325 10328 10332 10339 10345
10569 10563 10556 10548 10540 10531 10521 10511 10500 10489 10478 10469 10459 10449 10439 10427 10416 10404 10392 10378 10365 10351 10339 10330 10321 10313 10307 10301 10296 10293 10290 10287 10285 10284 10285 10288 10292 10295 10299 10304 10309 10317 10326